Location: Crescent
(42.8242°N, 73.7329°W)
Time: 00:03:33
(UTC+00:00)

Explorer 7 - Pass Details

Date: 23 February 2026
Orbit: 430 x 541 km, 50.2° (Epoch: 9 March)

Event Time Altitude Azimuth Distance (km) Brightness Sun altitude
Rises 20:40:12 0° 291° (WNW) 2,439 10.6 18.8°
Reaches altitude 10° 20:42:34 10° 305° (NW) 1,585 9.5 18.4°
Maximum altitude 20:45:33 24° 2° (N) 987 7.9 18.0°
Drops below altitude 10° 20:48:38 10° 59° (ENE) 1,635 8.7 17.5°
Sets 20:51:07 0° 73° (ENE) 2,538 9.6 17.1°
